星链-5591 (STARLINK-5591 )

导读

STARLINK-5591是美国SpaceX星链(Starlink)项目的卫星,于2023年3月3日发射升空,属于星链互联网星座的组网卫星,主要为全球范围提供低延迟、高速率的宽带互联网服务,依托低轨部署优势,提升覆盖区域网络连通性,助力星链星座服务能力的拓展与完善,支撑全球网络覆盖布局推进。

基本信息
目录编号:
55771
目录名称:
STARLINK-5591
国际标识:
2023-028AG
轨道中心:
EARTH
卫星名称:
星链-5591
卫星全名:
星链-5591 (STARLINK-5591 )
卫星状态:
在轨 (已飞行1200 天)
发射日期:
2023-03-03 UTC
国别 :
美国 (US)
星等 :
--
轨道信息
数据来源 国际轨道数据 AOE轨道数据
星历时间 2026-06-15T03:49:24+0800
6小时前
查看轨道信息
2026-06-14T02:00:00+0800
1天前
查看轨道信息
半长轴 6950.205km 6950.193km
偏心率 0.000253 0.0002793
轨道倾角 69.999° 69.999°
近地点辐角 270.745° 272.565°
升交点赤经 339.524° 342.233°
平近点角 89.342° 45.423°
近地点 570.309km 570.114km
远地点 573.827km 573.998km
周期 96.107分钟 96.107分钟
每日圈数 14.983261 14.983302
详细信息
固有亮度:
5
最大亮度:
2.5
卫星平台:
Starlink v1.5
覆盖范围:
全球
运营商:
太空探索技术公司
运营商所在国:
美国
制造商(研发单位):
太空探索技术公司
制造商所在国:
美国
使用方式:
暂无
卫星简介
星链(Starlink)计划是由太空探索技术公司(SpaceX)提出的一个巨型低轨卫星互联网星座项目,计划在2019年至2024年间在太空搭建由约1.2万颗卫星组成的“星链”网络,其中1584颗将部署在地球上空550千米处的近地轨道,并从2020年开始工作。该卫星仍在工作。
2D轨道图
3D轨道图
轨道高度分析图
轨道倾角分析图
轨道综合分析图
查看轨道综合分析图